Location: Huntsville
(34.7300°N, 86.5860°W)
Time: 23:56:33
(UTC-05:00)

N. Korean satellite - Pass Details

Date: 26 March 2019
Orbit: 455 x 510 km, 97.2° (Epoch: 17 June)

Event Time Altitude Azimuth Distance (km) Brightness Sun altitude
Rises 05:54:30 0° 35° (NE) 2,547 11.0 -10.5°
Reaches altitude 10° 05:57:25 10° 62° (ENE) 1,675 10.6 -9.9°
Maximum altitude 05:59:19 14° 94° (E) 1,461 10.3 -9.5°
Drops below altitude 10° 06:01:13 10° 126° (SE) 1,685 10.0 -9.2°
Sets 06:04:10 0° 153° (SSE) 2,573 10.5 -8.6°
